Waarnemingen

Advertentie
Mijn weer
Nancy/Ochey, Frankrijk (7181): temperatuur & dauwpunt: 20.04.2017 06:00:00 - 26.04.2017 06:00:00 (CEST)Nancy/Ochey, Frankrijk (7181): temperatuur 5cm: 20.04.2017 06:00:00 - 26.04.2017 06:00:00 (CEST)Nancy/Ochey, Frankrijk (7181): temperatuur -20cm & temperatuur -100cm: 20.04.2017 06:00:00 - 26.04.2017 06:00:00 (CEST)Nancy/Ochey, Frankrijk (7181): windsnelheid & windstoten: 20.04.2017 06:00:00 - 26.04.2017 06:00:00 (CEST)Nancy/Ochey, Frankrijk (7181): windrichting: 20.04.2017 06:00:00 - 26.04.2017 06:00:00 (CEST)Nancy/Ochey, Frankrijk (7181): luchtdruk: 20.04.2017 06:00:00 - 26.04.2017 06:00:00 (CEST)Nancy/Ochey, Frankrijk (7181): zicht: 20.04.2017 06:00:00 - 26.04.2017 06:00:00 (CEST)Nancy/Ochey, Frankrijk (7181): neerslag: 20.04.2017 06:00:00 - 26.04.2017 06:00:00 (CEST)
Datum & Tijd tt [°C] td [°C] tt 5cm [°C] tt -20cm [°C] tt -100cm [°C] ff [km/u] ff [kn] fx [km/u] fx [kn] dd ppp [hPa] vv [km] rr [mm]
26.04.2017 06:00:00 2,3 2,2 0,9 10,1 9,8 3 2 5 3 N 1011,1 7 0,0
26.04.2017 05:00:00 2,3 1,9 1,1 10,2 9,8 3 2 6 3 NW 1011,2 6 0,2
26.04.2017 04:00:00 2,7 2,3 2,2 10,2 9,8 4 2 8 5 NO 1011,2 9 0,2
26.04.2017 03:00:00 2,7 2,1 2,0 10,3 9,8 8 4 11 6 NW 1011,7 9 0,0
26.04.2017 02:00:00 2,6 2,0 2,0 10,3 9,8 5 3 12 6 ZO 1011,3 13 0,0
26.04.2017 01:00:00 2,7 2,0 2,3 10,3 9,8 7 4 13 7 ZO 1011,1 13 0,0
26.04.2017 00:00:00 2,8 1,9 2,4 10,3 9,8 5 3 14 8 ZO 1010,9 18 0,0
25.04.2017 23:00:00 3,1 1,9 2,7 10,4 9,8 8 4 14 7 ZO 1010,8 22 0,0
25.04.2017 22:00:00 3,4 1,8 3,0 10,3 9,8 10 6 14 8 ZZO 1010,7 32 0,0
25.04.2017 21:00:00 3,5 1,9 3,1 10,3 9,7 10 5 18 10 ZO 1010,7 41 0,0
25.04.2017 20:00:00 4,1 1,8 3,9 10,4 9,8 10 6 17 9 ZZO 1010,6 51 0,0
25.04.2017 19:00:00 5,6 0,4 5,9 10,3 9,7 4 2 9 5 O 1010,4 60 0,0
25.04.2017 18:00:00 5,8 -0,7 7,0 10,3 9,7 6 3 14 8 N 1010,7 60 0,0
25.04.2017 17:00:00 5,5 -0,6 6,7 10,3 9,7 6 3 22 12 N 1011,1 60 0,0
25.04.2017 16:00:00 5,1 0,7 7,4 10,4 9,7 17 9 28 15 NNW 1011,8 48 0,0
25.04.2017 15:00:00 6,3 0,4 9,0 10,4 9,7 18 10 29 16 NNW 1011,7 60 0,0
25.04.2017 14:00:00 6,0 2,8 7,3 10,4 9,7 15 8 23 12 NNW 1012,0 54 0,0
25.04.2017 13:00:00 6,0 2,3 6,7 10,4 9,7 12 7 21 11 NW 1012,1 60 0,0
25.04.2017 12:00:00 5,6 3,1 6,7 10,4 9,7 18 10 31 17 N 1011,9 60 0,0
25.04.2017 11:00:00 7,7 4,8 8,8 10,4 9,7 13 7 32 17 WNW 1010,9 19 0,0
25.04.2017 10:00:00 9,3 4,7 11,3 10,5 9,7 14 7 27 15 WNW 1009,9 20 0,0
25.04.2017 09:00:00 9,0 3,8 8,4 10,5 9,7 14 8 21 11 WZW 1009,8 51 0,0
25.04.2017 08:00:00 6,3 2,7 4,2 10,6 9,7 13 7 17 9 ZW 1010,0 38 0,0
25.04.2017 07:00:00 4,7 2,1 3,0 10,6 9,7 8 5 14 8 ZZW 1009,8 37 0,0
25.04.2017 06:00:00 4,3 1,3 2,6 10,7 9,7 9 5 15 8 ZZW 1010,0 37 0,0
25.04.2017 05:00:00 4,7 1,0 2,5 10,7 9,7 9 5 13 7 ZZW 1010,0 44 0,0
25.04.2017 04:00:00 5,1 1,0 3,1 10,7 9,7 9 5 17 9 Z 1010,0 52 0,0
25.04.2017 03:00:00 5,9 0,6 4,0 10,7 9,7 9 5 18 10 ZW 1010,0 60 0,0
25.04.2017 02:00:00 7,0 0,4 4,4 10,7 9,7 13 7 15 8 ZZW 1010,2 60 0,0
25.04.2017 01:00:00 7,2 0,2 4,7 10,7 9,7 8 4 11 6 ZW 1010,4 60 0,0
25.04.2017 00:00:00 8,6 0,1 1,6 10,6 9,7 9 5 11 6 ZZW 1010,6 60 0,0
24.04.2017 23:00:00 9,2 -0,2 1,4 10,5 9,7 3 1 8 4 WZW 1011,1 60 0,0
24.04.2017 22:00:00 11,0 -0,2 8,6 10,5 9,7 7 4 13 7 WNW 1011,2 60 0,0
24.04.2017 21:00:00 12,1 -0,8 9,4 10,3 9,7 10 6 24 13 WNW 1010,8 60 0,0
24.04.2017 20:00:00 15,9 0,4 15,3 10,1 9,7 14 7 23 12 NW 1010,2 59 0,0
24.04.2017 19:00:00 18,1 0,2 16,5 10,0 9,7 9 5 23 12 W 1010,2 53 0,0
24.04.2017 18:00:00 18,6 0,7 22,4 9,8 9,7 11 6 26 14 W 1010,6 59 0,0
24.04.2017 17:00:00 18,6 0,2 24,6 9,7 9,6 8 5 25 14 ZW 1011,5 60 0,0
24.04.2017 16:00:00 17,4 -0,8 24,3 9,6 9,7 12 6 30 16 ZW 1012,7 46 0,0
24.04.2017 15:00:00 16,8 -0,9 23,8 9,6 9,7 7 4 18 10 ZW 1013,9 60 0,0
24.04.2017 14:00:00 16,1 -1,5 23,3 9,6 9,7 9 5 20 11 WZW 1014,9 60 0,0
24.04.2017 13:00:00 14,7 -2,3 22,2 9,6 9,7 5 3 16 9 N 1016,1 19 0,0
24.04.2017 12:00:00 13,1 -1,7 21,8 9,6 9,7 4 2 12 7 NW 1017,1 60 0,0
24.04.2017 11:00:00 11,9 0,6 19,7 9,6 9,7 5 3 13 7 WNW 1017,8 60 0,0
24.04.2017 10:00:00 9,3 0,2 16,0 9,7 9,7 3 2 8 5 O 1018,5 53 0,0
24.04.2017 09:00:00 6,5 -0,5 8,6 9,8 9,7 0 0 6 3 N 1019,5 46 0,0
24.04.2017 08:00:00 3,1 -0,7 -5,2 9,9 9,7 2 1 4 2 ZW 1020,1 34 0,0
24.04.2017 07:00:00 0,1 -2,6 -6,6 10,0 9,7 0 0 4 2 N 1020,8 41 0,0
24.04.2017 06:00:00 0,7 -3,0 -6,3 10,0 9,7 0 0 3 2 N 1020,9 54 0,0
24.04.2017 05:00:00 1,0 -2,2 -4,7 10,0 9,7 0 0 7 4 N 1021,1 40 0,0
24.04.2017 04:00:00 3,2 -2,3 -3,6 10,1 9,7 4 2 8 4 ONO 1021,3 60 0,0
24.04.2017 03:00:00 3,2 -2,1 -4,9 10,1 9,7 3 1 13 7 ZW 1021,9 60 0,0
24.04.2017 02:00:00 2,6 -2,3 -4,2 10,1 9,7 9 5 18 10 ONO 1022,8 60 0,0
24.04.2017 01:00:00 4,1 -2,1 -3,0 10,1 9,7 10 6 15 8 ONO 1023,2 60 0,0
24.04.2017 00:00:00 4,2 -2,2 -2,1 10,0 9,7 8 4 14 8 NO 1023,5 60 0,0
23.04.2017 23:00:00 6,0 -2,1 3,1 10,0 9,7 9 5 12 6 NO 1023,7 60 0,0
23.04.2017 22:00:00 7,1 -1,8 3,6 9,9 9,7 8 4 11 6 NO 1023,9 60 0,0
23.04.2017 21:00:00 8,1 -1,7 5,5 9,8 9,7 7 4 18 10 NNO 1023,5 60 0,0
23.04.2017 20:00:00 10,5 -1,6 10,9 9,7 9,7 11 6 21 11 NNO 1023,2 60 0,0
23.04.2017 19:00:00 11,8 -2,4 15,4 9,6 9,7 16 8 24 13 N 1023,2 60 0,0
23.04.2017 18:00:00 12,3 -2,4 16,8 9,5 9,7 16 9 29 16 NNO 1023,0 47 0,0
23.04.2017 17:00:00 12,2 -1,4 19,0 9,4 9,7 13 7 28 15 NNW 1023,4 58 0,0
23.04.2017 16:00:00 11,9 -2,7 20,0 9,4 9,7 14 8 31 17 NNO 1024,0 20 0,0
23.04.2017 15:00:00 11,5 -0,7 19,5 9,3 9,7 10 6 32 17 NNW 1024,4 20 0,0
23.04.2017 14:00:00 11,3 -1,5 15,0 9,3 9,6 11 6 29 16 NO 1025,0 50 0,0
23.04.2017 13:00:00 10,0 -1,7 15,5 9,4 9,7 8 4 27 14 N 1025,6 60 0,0
23.04.2017 12:00:00 8,8 -2,2 11,1 9,4 9,7 11 6 24 13 N 1026,2 60 0,0
23.04.2017 11:00:00 7,8 -0,4 9,4 9,5 9,7 12 7 24 13 ONO 1026,7 20 0,0
23.04.2017 10:00:00 6,2 1,7 8,9 9,5 9,7 13 7 19 10 NNO 1026,8 25 0,0
23.04.2017 09:00:00 4,9 2,4 5,5 9,6 9,7 11 6 15 8 N 1027,1 20 0,0
23.04.2017 08:00:00 2,4 1,5 -5,8 9,7 9,7 5 3 11 6 WNW 1027,3 11 0,0
23.04.2017 07:00:00 -0,2 -0,9 -7,7 9,8 9,7 7 4 10 6 NNW 1027,2 11 0,0
23.04.2017 06:00:00 1,0 0,3 -6,5 9,8 9,7 4 2 12 6 N 1026,6 15 0,0
23.04.2017 05:00:00 1,5 0,6 -4,9 9,8 9,7 8 4 11 6 NNW 1026,3 13 0,0
23.04.2017 04:00:00 2,3 1,3 -5,1 9,9 9,7 3 2 8 4 N 1026,3 15 0,0
23.04.2017 03:00:00 2,6 2,0 -3,5 9,9 9,7 4 2 7 4 NNW 1026,3 15 0,0
23.04.2017 02:00:00 3,4 3,1 -2,3 9,9 9,7 5 3 9 5 N 1026,6 14 0,0
23.04.2017 01:00:00 4,2 3,8 -2,2 9,9 9,7 6 3 8 4 NW 1026,4 8 0,0
23.04.2017 00:00:00 5,2 4,6 -1,0 9,9 9,7 5 3 6 3 ZW 1026,1 17 0,0
22.04.2017 23:00:00 6,1 4,7 0,2 9,9 9,7 0 0 3 2 N 1025,8 42 0,0
22.04.2017 22:00:00 6,4 5,2 1,8 9,9 9,7 0 0 4 2 N 1025,7 47 0,0
22.04.2017 21:00:00 6,8 5,4 2,4 9,8 9,7 4 2 8 5 N 1025,3 18 0,2
22.04.2017 20:00:00 8,6 5,3 7,9 9,8 9,7 7 4 16 9 NW 1024,7 18 0,0
22.04.2017 19:00:00 9,1 5,3 9,6 9,7 9,7 10 5 24 13 NNW 1024,9 38 0,0
22.04.2017 18:00:00 9,6 5,6 9,9 9,7 9,7 17 9 28 15 N 1024,9 20 0,0
22.04.2017 17:00:00 10,6 5,6 11,0 9,6 9,7 22 12 33 18 N 1024,4 33 0,0
22.04.2017 16:00:00 12,1 4,1 12,4 9,6 9,7 11 6 25 14 WNW 1024,3 40 0,0
22.04.2017 15:00:00 12,6 3,5 13,6 9,6 9,7 12 6 29 16 WNW 1024,7 47 0,0
22.04.2017 14:00:00 13,0 3,4 15,5 9,6 9,7 16 8 29 15 NW 1024,9 40 0,0
22.04.2017 13:00:00 12,6 3,8 16,1 9,5 9,7 17 9 29 16 NW 1025,5 37 0,0
22.04.2017 12:00:00 11,1 6,8 9,4 9,6 9,7 11 6 20 11 ZW 1026,2 13 0,0
22.04.2017 11:00:00 8,9 5,8 9,2 9,6 9,7 6 3 9 5 ZW 1027,0 11 0,0
22.04.2017 10:00:00 8,6 5,0 8,2 9,6 9,7 6 3 9 5 WZW 1027,0 15 0,0
22.04.2017 09:00:00 7,8 4,6 7,7 9,6 9,7 8 4 12 7 ZZW 1027,1 15 0,0
22.04.2017 08:00:00 7,6 4,4 6,8 9,7 9,7 8 5 11 6 ZW 1026,9 15 0,0
22.04.2017 07:00:00 7,2 4,2 6,6 9,7 9,7 6 3 8 5 ZZW 1026,8 15 0,0
22.04.2017 06:00:00 7,5 4,1 6,2 9,7 9,7 6 3 8 4 Z 1026,8 17 0,0
22.04.2017 05:00:00 6,8 3,4 5,5 9,7 9,7 5 3 9 5 Z 1027,2 16 0,0
22.04.2017 04:00:00 6,1 2,9 0,8 9,8 9,7 5 3 9 5 ZW 1027,8 16 0,0
22.04.2017 03:00:00 5,8 1,9 0,7 9,7 9,7 5 3 8 4 ZZW 1028,1 19 0,0
22.04.2017 02:00:00 6,5 2,2 0,9 9,7 9,7 6 3 8 4 WZW 1028,4 18 0,0
22.04.2017 01:00:00 6,8 1,9 0,2 9,7 9,7 7 4 8 4 WZW 1028,7 15 0,0
22.04.2017 00:00:00 8,3 2,1 0,4 9,6 9,7 5 3 7 4 WNW 1028,8 16 0,0
21.04.2017 23:00:00 8,7 1,1 0,2 9,6 9,8 3 2 10 6 W 1028,9 19 0,0
21.04.2017 22:00:00 9,7 0,8 0,9 9,5 9,7 7 4 11 6 NW 1028,9 24 0,0
21.04.2017 21:00:00 11,1 0,5 3,5 9,3 9,8 10 5 15 8 WNW 1028,3 42 0,0
21.04.2017 20:00:00 13,9 -0,9 12,3 9,1 9,7 4 2 16 8 NNW 1027,7 41 0,0
21.04.2017 19:00:00 15,7 -1,9 19,7 9,0 9,7 4 2 25 14 WNW 1027,8 20 0,0
21.04.2017 18:00:00 15,7 -1,4 22,3 8,9 9,7 9 5 30 16 NNW 1028,1 19 0,0
21.04.2017 17:00:00 15,9 -2,6 23,5 8,7 9,7 10 5 32 18 WNW 1028,5 20 0,0
21.04.2017 16:00:00 15,9 -4,1 23,8 8,6 9,7 14 7 24 13 NNW 1029,1 19 0,0
21.04.2017 15:00:00 15,4 -5,1 23,6 8,6 9,7 9 5 21 12 NNW 1029,9 47 0,0
21.04.2017 14:00:00 14,1 -5,1 21,2 8,5 9,7 9 5 22 12 WNW 1031,0 20 0,0
21.04.2017 13:00:00 13,4 -3,9 22,2 8,6 9,8 7 4 19 11 NW 1031,7 20 0,0
21.04.2017 12:00:00 12,5 -3,4 21,0 8,6 9,7 10 5 19 10 NW 1032,2 19 0,0
21.04.2017 11:00:00 11,0 -4,3 19,1 8,7 9,8 9 5 17 9 NW 1032,8 60 0,0
21.04.2017 10:00:00 9,9 -3,8 15,3 8,7 9,8 4 2 9 5 W 1032,8 20 0,0
21.04.2017 09:00:00 7,1 -5,0 9,4 8,8 9,8 2 1 5 3 WZW 1033,0 38 0,0
21.04.2017 08:00:00 4,1 -3,2 -4,9 8,9 9,8 5 3 10 5 Z 1033,1 33 0,0
21.04.2017 07:00:00 -0,7 -4,9 -7,0 8,9 9,8 8 5 9 5 Z 1033,7 34 0,0
21.04.2017 06:00:00 -1,0 -4,9 -7,4 9,0 9,8 6 3 7 4 ZZW 1033,8 35 0,0
21.04.2017 05:00:00 0,2 -5,2 -6,2 9,0 9,8 5 3 9 5 ZO 1033,9 46 0,0
21.04.2017 04:00:00 0,5 -4,9 -7,0 9,1 9,9 0 0 4 2 N 1034,1 43 0,0
21.04.2017 03:00:00 0,4 -5,2 -6,5 9,1 9,9 0 0 6 4 N 1034,2 46 0,0
21.04.2017 02:00:00 2,8 -5,1 -5,2 9,1 9,8 7 4 11 6 ZZO 1033,8 45 0,0
21.04.2017 01:00:00 2,2 -5,2 -5,9 9,1 9,9 5 3 9 5 Z 1034,4 48 0,0
21.04.2017 00:00:00 3,8 -5,4 -4,1 9,0 9,9 4 2 9 5 OZO 1034,4 54 0,0
20.04.2017 23:00:00 4,1 -5,1 -4,2 9,0 9,9 8 4 8 5 O 1034,4 56 0,0
20.04.2017 22:00:00 4,8 -5,0 -3,7 8,9 9,9 7 4 8 4 O 1034,4 57 0,0
20.04.2017 21:00:00 6,2 -5,2 -2,1 8,9 9,9 5 3 11 6 ONO 1033,9 60 0,0
20.04.2017 20:00:00 9,1 -6,0 9,0 8,8 9,9 10 5 22 12 ONO 1033,4 60 0,0
20.04.2017 19:00:00 10,0 -5,6 12,6 8,7 9,9 11 6 23 12 NO 1033,2 51 0,0
20.04.2017 18:00:00 10,3 -5,3 14,2 8,6 9,9 9 5 24 13 NO 1033,2 48 0,0
20.04.2017 17:00:00 10,0 -5,2 14,7 8,6 9,9 10 6 29 16 ONO 1033,5 55 0,0
20.04.2017 16:00:00 9,9 -5,3 13,9 8,5 9,9 15 8 33 18 ONO 1033,9 50 0,0
20.04.2017 15:00:00 9,2 -5,1 13,6 8,5 9,9 12 7 38 21 O 1034,7 51 0,0
20.04.2017 14:00:00 8,1 -4,7 13,3 8,5 9,9 19 10 46 25 ONO 1035,3 20 0,0
20.04.2017 13:00:00 7,2 -5,2 11,9 8,5 9,9 16 9 32 18 ONO 1035,7 60 0,0
20.04.2017 12:00:00 6,5 -6,2 12,0 8,6 9,9 20 11 38 21 ONO 1036,2 60 0,0
20.04.2017 11:00:00 5,6 -5,1 6,2 8,7 9,9 16 8 32 18 O 1036,4 46 0,0
20.04.2017 10:00:00 4,2 -4,1 7,4 8,7 9,9 20 11 29 16 ONO 1036,5 60 0,0
20.04.2017 09:00:00 2,9 -3,7 4,1 8,8 9,9 12 7 23 13 ONO 1036,4 59 0,0
20.04.2017 08:00:00 0,5 -4,3 -4,9 8,8 9,9 9 5 18 10 NO 1036,5 50 0,0
20.04.2017 07:00:00 -2,0 -5,5 -9,7 8,9 9,9 5 3 10 6 ONO 1036,2 54 0,0
20.04.2017 06:00:00 -1,6 -5,6 -7,6 9,0 10,0 4 2 12 6 N 1035,8 52 0,0

tt = temperatuur
td = dauwpunt
tt 5cm = temperatuur 5cm
tt -20cm = temperatuur -20cm
tt -100cm = temperatuur -100cm
ff = windsnelheid
fx = windstoten
dd = windrichting
ppp = luchtdruk
vv = zicht
rr = neerslag

Weerstations in de omgeving